Search your local weather  

 
Advertise Here

Hazardous Weather Conditions

No active alerts for PHOENIX, ARIZONA

Current Conditions: PHOENIX, ARIZONA

Fair


58.0 F

Last Updated on Nov 27 2020, 11:53 am MST
Humidity: 29%
Wind Speed: 4.6 mph
Barometer 30.14 in
Dewpoint: 26.1 F
Visibility: 10.00 mi
Precip: --
Heat Index: NA
Wind Chill: 58 F
Current conditions at:

Phoenix, Phoenix-Deer Valley Municipal Airport, AZ (KDVT)

Lat: 33.69026 Lon: -112.06618

Local Radar Image active severe weather and emergency alerts image image weather storm and storm spotter reports image weather observation monitoring service image
Local
Radar
Active
Alerts
Storm Reports Weather
Monitoring

5 Day Forecast for PHOENIX, ARIZONA (85001)

Friday

Mostly Sunny

High 66 °F
Friday
Night
Mostly Clear

Low 44 °F
Saturday

Mostly Sunny

High 71 °F
Saturday
Night
Mostly Clear

Low 44 °F
Sunday

Mostly Sunny

High 74 °F
Sunday
Night
Partly Cloudy

Low 50 °F
Monday

Partly Sunny

High 75 °F
Monday
Night
Partly Cloudy

Low 46 °F
Tuesday

Mostly Sunny

High 72 °F

Sign-up For Email & Text Message Weather Alert Notification Services


Advertise Here

Observation History for PHOENIX, ARIZONA


Time Wind
(mph)
Vis
(mi)
Weather Precip (in) Temperature (F) Relative
Humidity
Wind
Chill
(F)
Heat
Index
(F)
Pressure
Air Dwpt altimeter
(in)
sea level
(mb)
11:53 am MST 4.6 10.00 Fair -- 58.0 26.1 29% 58 NA 30.14 1019.8
10:53 am MST 3.5 10.00 Fair -- 55.0 23.0 29% NA NA 30.14 1020.0
9:53 am MST N 0.0 10.00 Fair -- 51.0 21.0 31% NA NA 30.13 1019.7
8:53 am MST N 0.0 10.00 Fair -- 47.0 21.0 36% NA NA 30.12 1019.2
7:53 am MST E 3.5 10.00 Fair -- 41.0 21.0 45% NA NA 30.09 1018.5
6:53 am MST N 4.6 10.00 Fair -- 41.0 19.0 41% 38 NA 30.07 1017.5
5:53 am MST 3.5 10.00 Fair -- 39.0 19.0 45% NA NA 30.04 1016.6
4:53 am MST E 4.6 10.00 Fair -- 43.0 19.9 40% 40 NA 30.02 1015.8
3:53 am MST N 0.0 10.00 Fair -- 40.0 19.0 43% NA NA 30.02 1015.5
2:53 am MST N 0.0 10.00 Fair -- 44.0 19.9 38% NA NA 30.00 1015.1
1:53 am MST SE 5.8 10.00 Fair -- 46.0 21.0 37% 43 NA 29.98 1014.2
9:53 pm MST W 5.8 10.00 Fair -- 54.0 21.9 29% 53 NA 29.96 1013.3
7:53 pm MST N 0.0 10.00 Fair -- 56.0 25.0 30% NA NA 29.95 1013.3
6:53 pm MST SW 3.5 10.00 Fair -- 59.0 25.0 27% NA NA 29.94 1013.0
5:53 pm MST SW 6.9 10.00 Fair -- 62.0 26.1 25% 62 NA 29.94 1013.0
4:53 pm MST W 6.9 10.00 Fair -- 66.0 24.1 20% NA NA 29.93 1012.6

Regional Weather Observation

Glendale, Glendale Municipal Airport, AZ (KGEU)

Clear
59.0 F

Luke Air Force Base / Phoenix, AZ (KLUF)

Fair
59.0 F

Phoenix, Phoenix Sky Harbor International Airport, AZ (KPHX)

A Few Clouds
58.0 F

Goodyear Municipal, AZ (KGYR)

A Few Clouds
59.0 F

Buckeye Municipal Airport, AZ (KBXK)

Fair
59.0 F

Scottsdale Airport, AZ (KSDL)

Fair
58.0 F
Advertise Here

Advertise Here